N3YVY Weather Reports


Display with metric or nautical units.
time (UTC)temp
F
wind
direction
speed
MPH
gust
MPH
rain 1hr
in
rain 24hr
in
rain mn
in
humidity
%
barometer
mb
20191018210152 63 266 5.0 0.0 0.00 0.00 0.00 43 1013.9
20191018204700 64 336 5.0 0.0 0.00 0.00 0.00 43 1013.8
20191018203143 64 306 5.0 0.0 0.00 0.00 0.00 43 1013.7
20191018201627 64 259 6.0 0.0 0.00 0.00 0.00 42 1013.7
20191018200154 64 244 6.0 0.0 0.00 0.00 0.00 42 1013.6
20191018194612 64 309 5.0 0.0 0.00 0.00 0.00 43 1013.5
20191018193105 63 306 6.0 0.0 0.00 0.00 0.00 44 1013.4
20191018191559 63 323 6.0 0.0 0.00 0.00 0.00 43 1013.7
20191018190101 62 287 6.0 0.0 0.00 0.00 0.00 45 1013.7
20191018184621 62 5 6.0 0.0 0.00 0.00 0.00 46 1013.7
20191018183100 61 14 7.0 0.0 0.00 0.00 0.00 46 1014.0
20191018181557 61 271 6.0 0.0 0.00 0.00 0.00 48 1013.9
20191018180114 60 296 8.0 0.0 0.00 0.00 0.00 49 1013.8
20191018174549 60 309 5.0 0.0 0.00 0.00 0.00 49 1013.8
20191018173109 60 319 6.0 0.0 0.00 0.00 0.00 50 1014.0
20191018171550 59 275 7.0 0.0 0.00 0.00 0.00 50 1014.2
20191018170104 59 332 5.0 0.0 0.00 0.00 0.00 52 1014.4
20191018164545 58 326 6.0 0.0 0.00 0.00 0.00 52 1014.3
20191018163056 58 343 6.0 0.0 0.00 0.00 0.00 52 1014.3
20191018161545 57 294 6.0 0.0 0.00 0.00 0.00 54 1014.4
20191018160045 57 320 7.0 0.0 0.00 0.00 0.00 54 1014.5
20191018154535 56 307 7.0 0.0 0.00 0.00 0.00 56 1014.4
20191018153038 55 302 7.0 0.0 0.00 0.00 0.00 56 1014.2
20191018151522 55 291 5.0 0.0 0.00 0.00 0.00 57 1014.2
20191018150033 55 288 6.0 0.0 0.00 0.00 0.00 58 1014.3
20191018144508 55 304 7.0 0.0 0.00 0.00 0.00 59 1014.3
20191018143033 53 348 7.0 0.0 0.00 0.00 0.00 60 1014.2
20191018141510 54 296 4.0 0.0 0.00 0.00 0.00 61 1014.2
20191018140007 53 360 8.0 0.0 0.00 0.00 0.00 60 1014.3
20191018134645 53 323 5.0 0.0 0.00 0.00 0.00 62 1014.1
20191018133210 52 306 5.0 0.0 0.00 0.00 0.00 64 1014.0
20191018131646 51 277 5.0 0.0 0.00 0.00 0.00 65 1013.9
20191018130135 51 345 2.0 0.0 0.00 0.00 0.00 67 1013.9
20191018124629 50 319 3.0 0.0 0.00 0.00 0.00 68 1013.8
20191018123157 49 269 3.0 0.0 0.00 0.00 0.00 70 1013.7
20191018121621 48 256 2.0 0.0 0.00 0.00 0.00 71 1013.7
20191018120100 47 252 2.0 0.0 0.00 0.00 0.00 72 1013.3
20191018114614 47 249 2.0 0.0 0.00 0.00 0.00 73 1013.1
20191018113043 47 259 2.0 0.0 0.00 0.00 0.00 73 1012.9
20191018111556 47 255 2.0 0.0 0.00 0.00 0.00 73 1012.7
20191018110031 47 263 2.0 0.0 0.00 0.00 0.00 73 1012.5
20191018104545 47 254 2.0 0.0 0.00 0.00 0.00 73 1012.2
20191018103037 47 275 2.0 0.0 0.00 0.00 0.00 73 1012.0
20191018101518 47 263 2.0 0.0 0.00 0.00 0.00 73 1011.6
20191018100038 47 252 3.0 0.0 0.00 0.00 0.00 73 1011.6
20191018094537 47 244 2.0 0.0 0.00 0.00 0.00 73 1011.4
20191018093016 47 261 1.0 0.0 0.00 0.00 0.00 72 1011.4
20191018091505 48 273 1.0 0.0 0.00 0.00 0.00 71 1011.2
20191018090002 48 254 2.0 0.0 0.00 0.00 0.00 71 1011.0
20191018084641 48 295 1.0 0.0 0.00 0.00 0.00 71 1010.9
20191018083147 48 289 1.0 0.0 0.00 0.00 0.00 70 1010.8
20191018081630 48 314 2.0 0.0 0.00 0.00 0.00 70 1010.6
20191018080125 48 307 2.0 0.0 0.00 0.00 0.00 71 1010.6
20191018074714 48 268 2.0 0.0 0.00 0.00 0.00 70 1010.5
20191018073203 48 234 1.0 0.0 0.00 0.00 0.00 70 1010.3
20191018071628 48 270 1.0 0.0 0.00 0.00 0.00 69 1010.2
20191018070112 48 238 2.0 0.0 0.00 0.00 0.00 69 1010.1
20191018064627 49 242 2.0 0.0 0.00 0.00 0.00 68 1010.1
20191018063114 49 296 3.0 0.0 0.00 0.00 0.00 68 1009.9
20191018061655 49 245 2.0 0.0 0.00 0.00 0.00 68 1010.0
20191018060121 49 280 2.0 0.0 0.00 0.00 0.00 67 1010.0
20191018054627 49 245 1.0 0.0 0.00 0.00 0.00 67 1010.1
20191018053118 49 215 3.0 0.0 0.00 0.00 0.00 66 1009.8
20191018051555 49 283 2.0 0.0 0.00 0.00 0.00 65 1009.9
20191018050127 50 279 4.0 0.0 0.00 0.00 0.00 65 1009.8
20191018044638 50 245 4.0 0.0 0.00 0.00 0.00 64 1009.8
20191018043053 50 321 4.0 0.0 0.00 0.00 0.00 64 1009.5
20191018041612 50 299 3.0 0.0 0.00 0.00 0.00 63 1009.6
20191018040035 51 259 3.0 0.0 0.00 0.00 0.00 63 1009.7
20191018034531 51 302 5.0 0.0 0.00 0.00 0.00 62 1009.5
20191018033038 51 317 3.0 0.0 0.00 0.00 0.00 62 1009.6
20191018031538 51 235 3.0 0.0 0.00 0.00 0.00 62 1009.2
20191018030053 51 303 3.0 0.0 0.00 0.00 0.00 61 1009.2
20191018024528 52 250 4.0 0.0 0.00 0.00 0.00 61 1009.2
20191018023048 52 266 5.0 0.0 0.00 0.00 0.00 60 1009.0
20191018021548 52 324 5.0 0.0 0.00 0.00 0.00 60 1008.8
20191018020055 52 254 4.0 0.0 0.00 0.00 0.00 60 1008.9
20191018014552 53 231 4.0 0.0 0.00 0.00 0.00 59 1008.8
20191018013048 53 298 5.0 0.0 0.00 0.00 0.00 59 1008.5
20191018011525 53 298 5.0 0.0 0.00 0.00 0.00 59 1008.3
20191018010015 53 273 6.0 0.0 0.00 0.00 0.00 59 1008.2
20191018004514 54 275 5.0 0.0 0.00 0.00 0.00 59 1008.0
20191018003009 54 272 4.0 0.0 0.00 0.00 0.00 59 1008.0
20191018001533 54 238 4.0 0.0 0.00 0.00 0.00 58 1007.8
20191018000032 54 332 7.0 0.0 0.00 0.00 0.00 58 1007.6
20191017234506 54 281 7.0 0.0 0.00 0.00 0.00 59 1007.1
20191017233003 54 267 6.0 0.0 0.00 0.00 0.00 60 1007.0
20191017231508 54 256 6.0 0.0 0.00 0.00 0.00 60 1006.9
20191017230150 54 278 5.0 0.0 0.00 0.00 0.00 60 1006.7
20191017224630 54 226 8.0 0.0 0.00 0.00 0.00 59 1006.5
20191017223217 54 338 7.0 0.0 0.00 0.00 0.00 59 1006.3
20191017221709 54 274 8.0 0.0 0.00 0.00 0.00 59 1006.1
20191017220206 54 275 8.0 0.0 0.00 0.00 0.00 59 1005.8
20191017214642 55 287 7.0 0.0 0.00 0.00 0.00 59 1005.6
20191017213120 55 275 8.0 0.0 0.00 0.00 0.00 59 1005.5
20191017211647 55 300 6.0 0.0 0.00 0.00 0.00 61 1005.5